Home > Weather > Riverview > Past weeks

Flag for Canada Past Weather in Riverview, New Brunswick, Canada — Yesterday and Last 2 Weeks

Now
63 °F

Passing clouds.


Feels Like: 63 °F
Forecast: 55 / 81 °F
Wind: 8 mph from Southeast

Location: Moncton

Current Time: Jun 27, 2016 at 3:00:21 AM

Latest Report: Jun 27, 2016 at 2:00 AM


Visibility: 15 mi

Pressure: 30.06 "Hg

Humidity: 64%

Dew Point: 50 °F

Location of RiverviewLocation

Past Weather in Riverview — Graph

°F

Riverview Temperature Yesterday

Maximum temperature yesterday: 84 °F (at 4:00 PM)
Minimum temperature yesterday: 54 °F (at 4:00 AM)
Average temperature yesterday: 69 °F

High & Low Weather Summary for the Past Weeks

 TemperatureHumidityPressure
High84 °F (Jun 19, 3:00 PM)100% (Jun 12, 8:00 PM)30.23 "Hg (Jun 12, 8:00 PM)
Low41 °F (Jun 18, 2:00 AM)28% (Jun 18, 3:00 PM)29.35 "Hg (Jun 13, 3:00 PM)
Average59 °F71%29.82 "Hg
* Reported Jun 12 1:00 AM — Jun 27 1:00 AM, Riverview, Weather by CustomWeather, © 2016

Note: Actual official high and low records may vary slightly from our data, if they occured in-between our weather recording intervals... More about our weather records

Advertising

Riverview Weather History for the Previous 24 Hours

Scroll right to see more
 ConditionsComfort  
Time TempWeatherWind HumidityBarometerVisibility
1:00 AM
Mon, Jun 27
61 °FPassing clouds.8 mph77%30.08 "Hg15 mi
12:00 AM63 °FPassing clouds.7 mph73%30.09 "Hg15 mi
11:00 PM
Sun, Jun 26
66 °FPassing clouds.No wind64%30.11 "Hg15 mi
10:00 PM68 °FPartly sunny.9 mph60%30.11 "Hg15 mi
9:00 PM70 °FPartly sunny.8 mph60%30.11 "Hg15 mi
8:00 PM77 °FPartly sunny.9 mph51%30.12 "Hg15 mi
7:00 PM82 °FPartly sunny.8 mph40%30.11 "Hg15 mi
6:00 PM82 °FPartly sunny.7 mph40%30.13 "Hg15 mi
5:00 PM82 °FPartly sunny.10 mph37%30.14 "Hg15 mi
4:00 PM84 °FPartly sunny.12 mph37%30.14 "Hg15 mi
3:00 PM82 °FPartly sunny.10 mph35%30.16 "Hg15 mi
2:00 PM81 °FPartly sunny.8 mph42%30.16 "Hg15 mi
1:00 PM81 °FPassing clouds.7 mph48%30.18 "Hg15 mi
12:00 PM79 °FPassing clouds.5 mph45%30.19 "Hg15 mi
11:00 AM75 °FPassing clouds.5 mph54%30.21 "Hg15 mi
10:00 AM70 °FPassing clouds.7 mph60%30.21 "Hg15 mi
9:00 AM66 °FPassing clouds.7 mph64%30.22 "Hg15 mi
8:00 AM61 °FSunny.8 mph72%30.23 "Hg15 mi
7:00 AM55 °FPassing clouds.7 mph82%30.22 "Hg15 mi
6:00 AM54 °FPassing clouds.8 mph82%30.20 "Hg15 mi
5:00 AM54 °FPassing clouds.7 mph88%30.19 "Hg15 mi
4:00 AM54 °FPassing clouds.7 mph88%30.17 "Hg15 mi
3:00 AM55 °FPassing clouds.8 mph77%30.17 "Hg15 mi
Weather by CustomWeather, © 2016

See weather overviewHow to use our weather pages